STARLINK-32855, 62813

Orbit data source: Space-Track

STARLINK-32855, 62813 is a payload satellite owned by SpaceX/Seattle (US) in LEO that was launched on Fri, 24 Jan 2025 UTC via an FALCON 9 launch vehicle from the Air Force Western Test Range (AFWTR). Payload-class satellites include a variety of spacecraft equipped with specific instruments for various scientific and technological missions. These include communications satellites like Starlink; space stations such as the ISS; scientific satellites like the Hubble; Earth observation satellites from companies like Planet Labs, Umbra, and HawkEye 360; GPS; miniature CubeSats for education and research; and military/defense satellites.

Loading next visibility...
Identifier
62813, 2025-018H
Orbit
LEO
Last TLE update
1 day ago
Origin
Manufacturer
SpaceX/Seattle
Mission
Operational Commercial Communications
Bus & Motor
STARLINK V2M, Unknown motor
Mass
730 kg wet, ~700 kg dry
Launch date (UTC)
2025-01-24 (3 months ago)
Launch vehicle
FALCON 9
Launch site
Air Force Western Test Range (AFWTR)
Object type
Payload
Rocket body
Debris
Shape & HBR
Box + 2 Pan, 29 m
Radar Cross Section
33.884 m², Large (>1 m²)

Expand to show TLE details & history

TLE from 1 day ago
0 STARLINK-32855
1 62813U 25018H   25127.98438336  .00139584  00000-0  33199-2 0  9994
2 62813  53.1611 290.9845 0002404 325.2488  34.8359 15.40663695 16349
Epoch: 2025-05-07T23:37Z
Definitive object data (Epoch: 2025-05-07T23:37:30.722Z)
Latitude
-0.00009°
Longitude
70.54503°
Altitude
443.707 km
Speed
7.648 km/s
True Right ascension
19h 23m 56s
True Declination
0° 00' 00"
Sunlit
Object was in full shadow at TLE epoch
Visualization TLE readout
Latitude
24.62643°
Longitude
84.6677°
Altitude
443.342 km
Speed
7.65 km/s
Apparent Right ascension
22h 33m 14s
Apparent Declination
-8° 07' 22"
Sunlit
Object is in daylight
Visualization observer readout
Local Sidereal Time
13:28:54
Azimuth
63.043° ENE
Elevation
-39.615°
Doppler factor
1
Orbital elements
Apogee altitude
446.047 km
Perigee altitude
442.767 km
Semi-major axis
6,822.544 km
Eccentricity
0.0002404
Inclination
53.1611°
RAAN
290.9845°
Arg. of periapsis
325.2488°
True anomaly
34.85164°
Mean anomaly
34.8359°
Eccentric anomaly
34.84377°
Mean motion
3.85144 °/min
BSTAR
0.0033199
Orbital period
93.47 mins
Loading maneuver chart data...
Loading SW <> Apogee altitude chart data...
Loading historical data...
Loading historical data...
Loading historical data...
Loading historical data...
Loading historical data...
Loading historical data...
Loading historical data...

STARLINK-32855 Visibility forecast

Observer location: undefined°, undefined°

Span
Click to sort rows by Start time (UTC) header in descending order
Start Az.
Max El. time (UTC)
Max El. Az.
Max El.
End time (UTC)
End Az.
6 mins2025-05-09 13:09:15.619Z224.331° SW2025-05-09 13:12:15.619Z199.962° SSW42.33°2025-05-09 13:15:15.619Z53.488° ENE
4 mins2025-05-09 19:43:15.619Z327.744° NNW2025-05-09 19:45:15.619Z75.733° E38.662°2025-05-09 19:47:15.619Z114.561° SE
|